User: anonymous   Login
Location: Unspecified
(0.0000°N, 0.0000°E)
Time: 03:00:58
(UTC+00:00)
Language:

STARLINK-31001 - Orbit

View from above orbital plane
View from above orbital plane
View from above satellite
View from above satellite

Ground track
Ground track

The orbit is defined by the following mean orbital elements,

1 58527U          26145.40909149 +.00000000 +00000-0 +44586-4 0 00005
2 58527  43.0057  30.1473 0001359 265.2135  94.8562 15.27583566    00
Epoch (UTC): 25 May 2026 09:49:05
Eccentricity: 0.0001359
inclination: 43.0057°
perigee height: 482 km
apogee height: 484 km
right ascension of ascending node: 30.1473°
argument of perigee: 265.2135°
revolutions per day: 15.27583566
mean anomaly at epoch: 94.8562°

The dashed part of the orbit path shows where the satellite is in the earth's shadow,  

DLR